Flag for Saudi Arabia Weather past 2 weeks in Riyadh, Saudi Arabia

Now
111 °F

Sunny.


Feels Like: 104 °F
Forecast: 83 / 112 °F
Wind: 6 mph from East

Location: King Khaled International Airport

Current Time: Aug 2, 2015 at 1:48:41 PM

Latest Report: Aug 2, 2015 at 1:00 PM


Visibility: 3 mi

Pressure: 29.71 "Hg (27.88 "Hg at 590m altitude)

Humidity: 7%

Dew point: 36 °F

Location of RiyadhLocation

Historic Weather in Riyadh — Graph

°F

Riyadh temperature yesterday

Maximum temperature yesterday: 115 °F (at 2:00 PM)
Minimum temperature yesterday: 84 °F (at 6:00 AM)
Average temperature yesterday: 100 °F

Past Weeks' High & Low Weather Summary

 TemperatureHumidityPressure
High115 °F (Jul 30, 3:00 PM)27% (Jul 27, 6:00 AM)30.24 "Hg (Jul 27, 6:00 AM)
Low82 °F (Jul 19, 4:00 AM)4% (Jul 23, 3:00 PM)29.56 "Hg (Jul 26, 3:00 PM)
Average99 °F10%29.66 "Hg
* Reported Jul 18 1:00 PM — Aug 2 1:00 PM, Riyadh, Weather by CustomWeather, © 2015

Note: Actual official high and low records may vary slightly from our data, if they occured in-between our weather recording intervals... More about our weather records

Advertising

Riyadh weather history for previous 24 hours

 ConditionsComfort  
Time TempWeatherWind HumidityBarometerVisibility
1:00 PM
Sun, Aug 2
111 °FSunny.6 mph7%29.71 "Hg3 mi
12:00 PM109 °FSunny.5 mph8%29.74 "Hg3 mi
11:00 AM108 °FSunny.5 mph10%29.74 "Hg3 mi
10:00 AM106 °FSunny.7 mph10%29.74 "Hg3 mi
9:00 AM102 °FSunny.15 mph11%29.74 "Hg3 mi
8:00 AM97 °FScattered clouds.9 mph12%29.74 "Hg3 mi
7:00 AM93 °FPassing clouds.3 mph14%29.74 "Hg3 mi
6:00 AM93 °FPassing clouds.9 mph14%29.74 "Hg3 mi
5:00 AM93 °FPassing clouds.7 mph14%29.74 "Hg3 mi
4:00 AM93 °FPassing clouds.7 mph13%29.71 "Hg3 mi
3:00 AM93 °FPassing clouds.7 mph13%29.71 "Hg2 mi
2:00 AM95 °FPassing clouds.7 mph11%29.71 "Hg2 mi
1:00 AM97 °FPassing clouds.3 mph12%29.71 "Hg2 mi
12:00 AM97 °FPassing clouds.8 mph12%29.71 "Hg2 mi
11:00 PM
Sat, Aug 1
99 °FPassing clouds.3 mph10%29.74 "Hg2 mi
10:00 PM97 °FPassing clouds.No wind12%29.71 "Hg2 mi
9:00 PM100 °FPassing clouds.3 mph11%29.71 "Hg2 mi
8:00 PM104 °FPassing clouds.7 mph9%29.71 "Hg2 mi
7:00 PM106 °FPartly cloudy.17 mph9%29.68 "Hg2 mi
6:00 PM106 °FBroken clouds.8 mph9%29.65 "Hg2 mi
5:00 PM108 °FBroken clouds.7 mph8%29.65 "Hg2 mi
4:00 PM108 °FBroken clouds.10 mph8%29.65 "Hg2 mi
3:00 PM104 °FSandstorm.17 mph10%29.68 "Hg1 mi
2:00 PM115 °FBroken clouds.7 mph7%29.65 "Hg4 mi
1:00 PM111 °FScattered clouds.8 mph9%29.68 "Hg4 mi
Weather by CustomWeather, © 2015

See weather overviewHow to use our weather pages